Miami, FL

10:06 PM EST on January 21, 2017 (GMT -0500)
Miami International Airport

Weather History for KMIA - October, 2013

Change the Weather History Date:

Thursday, October 17, 2013

  Actual Average Record
Temperature  
Mean Temperature 82 °F 80 °F  
Max Temperature 88 °F 86 °F 92 °F (2009)
Min Temperature 75 °F 74 °F 58 °F (1906)
Degree Days  
Heating Degree Days 0 0  
Month to date heating degree days 0 0  
Since 1 July heating degree days 0 0  
Cooling Degree Days 17 15  
Month to date cooling degree days 278 272  
Year to date cooling degree days 3956 3884  
Growing Degree Days 32 (Base 50)    
Moisture  
Dew Point 69 °F    
Average Humidity 69    
Maximum Humidity 87    
Minimum Humidity 50    
Precipitation  
Precipitation 0.00 in 0.19 in 2.45 in (1959)
Month to date precipitation 5.65 4.16  
Year to date precipitation 58.80 54.42  
Snow  
Snow 0.00 in - - ()
Month to date snowfall 0.0  
Since 1 July snowfall 0.0  
Since 1 September snowfall 0.0  
Snow Depth 0.00 in    
Sea Level Pressure  
Sea Level Pressure 29.94 in    
Wind  
Wind Speed 6 mph (East)    
Max Wind Speed 14 mph    
Max Gust Speed 28 mph    
Visibility 10 miles    
Events      
T = Trace of Precipitation, MM = Missing Value Source: NWS Daily Summary

Daily Weather History Graph

Daily Weather History Graph

Search for Another Location

Airport or City:

Trip Planner

Search our weather history database for the weather conditions in past years. The results will help you decide how hot, cold, wet, or windy it might be!

Date:

Astronomy

Oct. 17, 2013 Rise Set
Actual Time 7:21 AM EDT 6:51 PM EDT
Civil Twilight 6:57 AM EDT 7:14 PM EDT
Nautical Twilight 6:31 AM EDT 7:41 PM EDT
Astronomical Twilight 6:04 AM EDT 8:08 PM EDT
Moon 6:01 PM EDT (10/17) 5:57 AM EDT (10/17)
Length of Visible Light 12h 16m
Length of Day
11h 30m
Waxing Gibbous, 98% of the Moon is Illuminated
Oct 17
Waxing Gibbous
Oct 18
Full
Oct 26
Last Quarter
Nov 3
New
Nov 10
First Quarter

Hourly Weather History & Observations

Time (EDT) Temp. Heat Index Dew Point Humidity Pressure Visibility Wind Dir Wind Speed Gust Speed Precip Events Conditions
12:53 AM 79.0 °F - 70.0 °F 74% 29.94 in 10.0 mi ENE 3.5 mph - N/A   Scattered Clouds
1:53 AM 75.0 °F - 69.1 °F 82% 29.93 in 10.0 mi Calm Calm - N/A   Clear
2:31 AM 77.0 °F - 69.8 °F 78% 29.92 in 10.0 mi Calm Calm - N/A   Mostly Cloudy
2:53 AM 77.0 °F - 70.0 °F 79% 29.91 in 10.0 mi Calm Calm - N/A   Mostly Cloudy
3:36 AM 75.2 °F - 69.8 °F 83% 29.90 in 10.0 mi Calm Calm - N/A   Mostly Cloudy
3:53 AM 77.0 °F - 70.0 °F 79% 29.91 in 10.0 mi Calm Calm - N/A   Mostly Cloudy
4:53 AM 77.0 °F - 71.1 °F 82% 29.91 in 10.0 mi Calm Calm - N/A   Mostly Cloudy
5:53 AM 77.0 °F - 71.1 °F 82% 29.93 in 10.0 mi North 3.5 mph - N/A   Mostly Cloudy
6:53 AM 75.0 °F - 71.1 °F 87% 29.94 in 10.0 mi Calm Calm - N/A   Partly Cloudy
7:53 AM 78.1 °F - 71.1 °F 79% 29.95 in 10.0 mi North 3.5 mph - N/A   Partly Cloudy
8:53 AM 81.0 °F 84.9 °F 71.1 °F 72% 29.97 in 10.0 mi Calm Calm - N/A   Partly Cloudy
9:53 AM 82.9 °F 86.5 °F 69.1 °F 63% 29.98 in 10.0 mi East 6.9 mph - N/A   Scattered Clouds
10:53 AM 84.0 °F 87.0 °F 68.0 °F 58% 29.99 in 10.0 mi East 9.2 mph - N/A   Scattered Clouds
11:53 AM 86.0 °F 89.4 °F 68.0 °F 55% 29.97 in 10.0 mi ESE 10.4 mph - N/A   Scattered Clouds
12:53 PM 87.1 °F 89.9 °F 66.9 °F 51% 29.96 in 10.0 mi ESE 9.2 mph 16.1 mph N/A   Scattered Clouds
1:53 PM 86.0 °F 88.8 °F 66.9 °F 53% 29.94 in 10.0 mi East 10.4 mph - N/A   Partly Cloudy
2:53 PM 87.1 °F 90.6 °F 68.0 °F 53% 29.92 in 10.0 mi SE 8.1 mph - N/A   Scattered Clouds
3:53 PM 84.9 °F 89.4 °F 70.0 °F 61% 29.91 in 10.0 mi ESE 9.2 mph - N/A   Scattered Clouds
4:53 PM 84.9 °F 88.8 °F 69.1 °F 59% 29.91 in 10.0 mi East 10.4 mph - N/A   Scattered Clouds
5:53 PM 82.0 °F 85.5 °F 69.1 °F 65% 29.91 in 10.0 mi East 10.4 mph - N/A   Scattered Clouds
6:53 PM 81.0 °F 84.4 °F 70.0 °F 69% 29.92 in 10.0 mi East 9.2 mph - N/A   Scattered Clouds
7:53 PM 80.1 °F 82.9 °F 69.1 °F 69% 29.93 in 10.0 mi East 9.2 mph - N/A   Partly Cloudy
8:53 PM 80.1 °F 82.9 °F 69.1 °F 69% 29.94 in 10.0 mi East 8.1 mph - N/A   Partly Cloudy
9:53 PM 80.1 °F 82.9 °F 69.1 °F 69% 29.95 in 10.0 mi ENE 6.9 mph - N/A   Clear
10:53 PM 79.0 °F - 70.0 °F 74% 29.96 in 10.0 mi East 6.9 mph - N/A   Clear
11:53 PM 79.0 °F - 70.0 °F 74% 29.96 in 10.0 mi East 6.9 mph - N/A   Partly Cloudy